Location: McFarlands Corners
(41.4117°N, 81.3382°W)
Time: 18:51:59
(UTC+00:00)

Vanguard 1 - All Passes

Search period start: 18 February 2026 00:00
Search period end: 28 February 2026 00:00
Orbit: 652 x 3819 km, 34.3° (Epoch: 17 February)

Date Brightness Start Highest point End Pass type
(mag) Time Alt. Az. Time Alt. Az. Time Alt. Az.
18 Feb - 00:01:31 10° W 00:17:33 67° S 00:40:41 10° ESE visible
18 Feb - 02:24:14 10° W 02:42:52 47° SSW 03:03:47 10° SSE visible
18 Feb - 04:52:33 10° W 05:06:09 20° SW 05:19:15 10° SSW visible
18 Feb - 19:41:51 10° SSW 19:50:31 41° SE 20:05:29 10° E daylight
18 Feb - 22:00:14 10° WSW 22:12:28 67° S 22:33:34 10° E daylight
19 Feb - 00:20:57 10° W 00:37:12 63° SSW 01:00:08 10° ESE visible
19 Feb - 02:44:08 10° W 03:02:10 40° SW 03:22:05 10° SSE visible
19 Feb - 05:16:05 10° WSW 05:24:59 14° SW 05:33:41 10° SSW visible
19 Feb - 17:46:12 10° SSE 17:50:29 15° SE 17:55:57 10° E daylight
19 Feb - 20:00:32 10° SW 20:09:31 48° SSE 20:25:32 10° E daylight
19 Feb - 22:19:27 10° WSW 22:32:00 68° S 22:53:26 10° ESE daylight
20 Feb - 00:40:25 10° W 00:56:48 58° SSW 01:19:23 10° SE visible
20 Feb - 03:04:18 10° W 03:21:23 33° SW 03:39:58 10° SSE visible
20 Feb - 18:03:22 10° S 18:09:01 21° SE 18:17:11 10° E daylight
20 Feb - 20:19:24 10° SW 20:28:39 55° SSE 20:45:31 10° E daylight
20 Feb - 22:38:42 10° W 22:51:35 67° S 23:13:14 10° ESE daylight
21 Feb - 00:59:57 10° W 01:16:21 52° SSW 01:38:23 10° SE visible
21 Feb - 03:24:54 10° W 03:40:31 27° SW 03:57:16 10° S visible
21 Feb - 18:21:18 10° SSW 18:27:41 28° SE 18:37:41 10° E daylight
21 Feb - 20:38:24 10° WSW 20:47:54 60° SSE 21:05:28 10° E daylight
21 Feb - 22:58:00 10° W 23:11:11 65° S 23:32:55 10° ESE visible
22 Feb - 01:19:35 10° W 01:35:49 46° SSW 01:57:05 10° SE visible
22 Feb - 03:46:17 10° W 03:59:35 20° SW 04:13:40 10° S visible
22 Feb - 18:39:40 10° SSW 18:46:27 35° SE 18:57:52 10° E daylight
22 Feb - 20:57:28 10° WSW 21:07:16 63° S 21:25:23 10° E daylight
22 Feb - 23:17:21 10° W 23:30:45 61° SSW 23:52:26 10° ESE visible
23 Feb - 01:39:23 10° W 01:55:14 39° SSW 02:15:26 10° SSE visible
23 Feb - 04:09:19 10° WSW 04:18:38 14° SW 04:28:18 10° SSW visible
23 Feb - 18:58:18 10° SW 19:05:24 42° SSE 19:17:52 10° E daylight
23 Feb - 21:16:38 10° WSW 21:26:42 65° S 21:45:16 10° E daylight
23 Feb - 23:36:44 10° W 23:50:19 56° SSW 00:11:45 10° SE visible
24 Feb - 01:59:27 10° W 02:14:35 32° SW 02:33:19 10° SSE visible
24 Feb - 17:01:53 10° SSE 17:05:32 15° SE 17:10:11 10° ESE daylight
24 Feb - 19:17:06 10° SW 19:24:28 49° SSE 19:37:48 10° E daylight
24 Feb - 21:35:50 10° W 21:46:11 64° S 22:05:04 10° ESE daylight
24 Feb - 23:56:12 10° W 00:09:51 50° SSW 00:30:48 10° SE visible
25 Feb - 02:19:57 10° W 02:33:53 26° SW 02:50:37 10° S visible
25 Feb - 17:19:29 10° S 17:24:12 21° SE 17:30:54 10° E daylight
25 Feb - 19:36:03 10° WSW 19:43:38 55° SSE 19:57:41 10° E daylight
25 Feb - 21:55:04 10° W 22:05:41 62° S 22:24:46 10° ESE daylight
26 Feb - 00:15:46 10° W 00:29:22 43° SSW 00:49:33 10° SE visible
26 Feb - 02:41:11 10° W 02:53:09 20° SW 03:06:59 10° S visible
26 Feb - 17:37:43 10° SSW 17:42:58 28° SE 17:51:06 10° E daylight
26 Feb - 19:55:06 10° WSW 20:02:54 59° S 20:17:32 10° E daylight
26 Feb - 22:14:21 10° W 22:25:11 58° SSW 22:44:19 10° ESE daylight
27 Feb - 00:35:30 10° W 00:48:50 37° SSW 01:07:55 10° SSE visible
27 Feb - 03:04:08 10° WSW 03:12:25 14° SW 03:21:30 10° SSW visible
27 Feb - 17:56:16 10° SW 18:01:53 35° SSE 18:11:04 10° E daylight
27 Feb - 20:14:12 10° WSW 20:22:14 60° S 20:37:20 10° ESE daylight
27 Feb - 22:33:41 10° W 22:44:41 52° SSW 23:03:39 10° SE daylight
